Tracking 28052 objects as of 25-Sep-2023
HD Live streaming from Space Station
objects crossing your sky now

FLOCK 4Y 9

Track FLOCK 4Y 9 now!
10-day predictions
FLOCK 4Y 9 is classified as:


NORAD ID: 55069
Int'l Code: 2023-001BN
Perigee: 503.0 km
Apogee: 522.5 km
Inclination: 97.5 °
Period: 94.7 minutes
Semi major axis: 6883 km
RCS: Unknown
Launch date: January 3, 2023
Source: United States (US)
Launch site: AIR FORCE EASTERN TEST RANGE (AFETR)
Your satellite tracking list
Your tracking list is empty




NASA's NSSDC Master Catalog

Two Line Element Set (TLE):
1 55069U 23001BN  23267.68523581  .00010696  00000-0  49716-3 0  9991
2 55069  97.4699 326.5859 0014145  35.7104 324.5075 15.20069804 40199
Source of the keplerian elements: AFSPC